Weather History for Cooperstown, ND

Change the Weather History Date:

Tuesday, October 16, 2012

  Actual Average (KJMS) Record (KJMS)
Temperature  
Mean Temperature 54 °F 44 °F  
Max Temperature 68 °F 56 °F 85 °F (1956)
Min Temperature 39 °F 33 °F 14 °F (1919)
Degree Days  
Heating Degree Days 12 21  
Month to date heating degree days 280  
Since 1 July heating degree days 598  
Cooling Degree Days 0 0  
Month to date cooling degree days 0  
Year to date cooling degree days 445  
Growing Degree Days 4 (Base 50)    
Moisture  
Dew Point 44 °F    
Average Humidity 71    
Maximum Humidity 100    
Minimum Humidity 37    
Precipitation  
Precipitation 0.00 in 0.06 in 1.42 in (1980)
Month to date precipitation 0.89  
Year to date precipitation 17.08  
Sea Level Pressure  
Sea Level Pressure 29.43 in    
Wind  
Wind Speed 8 mph (SW)    
Max Wind Speed 13 mph    
Max Gust Speed 17 mph    
Visibility 10 miles    
Events      
T = Trace of Precipitation, MM = Missing Value Source: NWS Daily Summary

Daily Weather History Graph

Daily Weather History Graph

Search for Another Location

Airport:

Trip Planner

Search our weather history database for the weather conditions in past years. The results will help you decide how hot, cold, wet, or windy it might be!

Date:

Astronomy

Oct. 16, 2012 Rise Set
Actual Time 7:53 AM CDT 6:41 PM CDT
Civil Twilight 7:22 AM CDT 7:12 PM CDT
Nautical Twilight 6:46 AM CDT 7:48 PM CDT
Astronomical Twilight 6:10 AM CDT 8:23 PM CDT
Moon 9:26 AM CDT (10/16) 7:16 PM CDT (10/16)
Length of Visible Light 11h 50m
Length of Day
10h 48m
New Moon, 2% of the Moon is Illuminated
Oct 16
New Moon
Oct 21
First Quarter
Oct 29
Full
Nov 6
Last Quarter
Nov 13
New

Hourly Weather History & Observations

Time (CDT) Temp. Windchill Dew Point Humidity Pressure Visibility Wind Dir Wind Speed Gust Speed Precip Events Conditions
12:15 AM 57.2 °F - 41.0 °F 55% 29.54 in 10.0 mi West 12.7 mph 16.1 mph N/A   Clear
12:35 AM 57.2 °F - 41.0 °F 55% 29.55 in 10.0 mi West 10.4 mph - N/A   Partly Cloudy
12:55 AM 57.2 °F - 41.0 °F 55% 29.55 in 10.0 mi West 11.5 mph - N/A   Partly Cloudy
1:15 AM 57.2 °F - 41.0 °F 55% 29.55 in 10.0 mi West 10.4 mph - N/A   Clear
1:35 AM 55.4 °F - 42.8 °F 63% 29.55 in 10.0 mi West 6.9 mph - N/A   Clear
1:55 AM 55.4 °F - 42.8 °F 63% 29.55 in 10.0 mi West 8.1 mph - N/A   Clear
2:15 AM 53.6 °F - 42.8 °F 67% 29.55 in 10.0 mi West 9.2 mph - N/A   Clear
2:55 AM 50.0 °F - 44.6 °F 82% 29.55 in 10.0 mi West 8.1 mph - N/A   Clear
3:15 AM 50.0 °F - 44.6 °F 82% 29.55 in 10.0 mi WSW 8.1 mph - N/A   Clear
3:35 AM 51.8 °F - 44.6 °F 76% 29.54 in 10.0 mi West 6.9 mph - N/A   Clear
3:55 AM 48.2 °F - 44.6 °F 87% 29.54 in 10.0 mi West 5.8 mph - N/A   Clear
4:15 AM 48.2 °F - 44.6 °F 87% 29.53 in 10.0 mi West 8.1 mph - N/A   Clear
4:55 AM 46.4 °F 42.4 °F 44.6 °F 93% 29.52 in 10.0 mi West 8.1 mph - N/A   Clear
5:15 AM 44.6 °F 39.2 °F 42.8 °F 93% 29.52 in 10.0 mi West 10.4 mph - N/A   Clear
5:35 AM 44.6 °F 39.2 °F 44.6 °F 100% 29.54 in 10.0 mi NW 10.4 mph - N/A   Clear
5:55 AM 44.6 °F 40.2 °F 41.0 °F 87% 29.53 in 10.0 mi NW 8.1 mph - N/A   Clear
6:15 AM 44.6 °F 40.2 °F 42.8 °F 93% 29.53 in 10.0 mi NW 8.1 mph - N/A   Clear
6:35 AM 41.0 °F 35.2 °F 41.0 °F 100% 29.53 in 10.0 mi NW 9.2 mph - N/A   Clear
6:55 AM 41.0 °F 34.7 °F 41.0 °F 100% 29.54 in 10.0 mi NW 10.4 mph - N/A   Clear
7:15 AM 41.0 °F 35.8 °F 41.0 °F 100% 29.53 in 10.0 mi WNW 8.1 mph - N/A   Clear
7:35 AM 39.2 °F 37.0 °F 37.4 °F 93% 29.52 in 10.0 mi WNW 3.5 mph - N/A   Clear
7:55 AM 39.2 °F 35.0 °F 39.2 °F 100% 29.52 in 10.0 mi NW 5.8 mph - N/A   Clear
8:35 AM 41.0 °F 37.1 °F 41.0 °F 100% 29.52 in 10.0 mi West 5.8 mph - N/A   Clear
8:55 AM 41.0 °F 38.0 °F 41.0 °F 100% 29.52 in 10.0 mi West 4.6 mph - N/A   Clear
9:15 AM 44.6 °F 42.2 °F 44.6 °F 100% 29.51 in 10.0 mi NW 4.6 mph - N/A   Clear
9:35 AM 46.4 °F 44.3 °F 44.6 °F 93% 29.51 in 10.0 mi WNW 4.6 mph - N/A   Clear
9:55 AM 50.0 °F - 44.6 °F 82% 29.51 in 10.0 mi NW 4.6 mph - N/A   Clear
10:15 AM 50.0 °F - 44.6 °F 82% 29.50 in 10.0 mi Calm Calm - N/A   Clear
10:35 AM 53.6 °F - 44.6 °F 72% 29.49 in 10.0 mi NW 3.5 mph - N/A   Clear
10:55 AM 55.4 °F - 46.4 °F 72% 29.49 in 10.0 mi WNW 4.6 mph - N/A   Clear
11:15 AM 57.2 °F - 46.4 °F 67% 29.49 in 10.0 mi Calm Calm - N/A   Clear
11:35 AM 59.0 °F - 46.4 °F 63% 29.47 in 10.0 mi South 3.5 mph - N/A   Clear
11:55 AM 59.0 °F - 46.4 °F 63% 29.46 in 10.0 mi South 3.5 mph - N/A   Clear
12:15 PM 62.6 °F - 46.4 °F 55% 29.45 in 10.0 mi South 4.6 mph - N/A   Clear
12:35 PM 64.4 °F - 44.6 °F 49% 29.44 in 10.0 mi South 3.5 mph - N/A   Clear
12:55 PM 64.4 °F - 44.6 °F 49% 29.45 in 10.0 mi South 8.1 mph - N/A   Clear
1:35 PM 64.4 °F - 44.6 °F 49% 29.42 in 5.0 mi South 8.1 mph - N/A   Haze
1:55 PM 66.2 °F - 44.6 °F 46% 29.41 in 10.0 mi SW 11.5 mph - N/A   Clear
2:15 PM 68.0 °F - 42.8 °F 40% 29.40 in 10.0 mi WSW 10.4 mph 17.3 mph N/A   Clear
2:35 PM 68.0 °F - 42.8 °F 40% 29.39 in 8.0 mi SW 10.4 mph - N/A   Clear
2:55 PM 68.0 °F - 41.0 °F 37% 29.38 in 8.0 mi WSW 9.2 mph - N/A   Clear
3:15 PM 68.0 °F - 44.6 °F 43% 29.37 in 10.0 mi SW 9.2 mph - N/A   Clear
3:35 PM 66.2 °F - 44.6 °F 46% 29.36 in 10.0 mi SSW 6.9 mph - N/A   Clear
3:55 PM 66.2 °F - 44.6 °F 46% 29.36 in 10.0 mi South 5.8 mph - N/A   Clear
4:35 PM 66.2 °F - 44.6 °F 46% 29.34 in 10.0 mi South 8.1 mph - N/A   Clear
4:55 PM 66.2 °F - 44.6 °F 46% 29.34 in 10.0 mi South 5.8 mph - N/A   Clear
5:15 PM 64.4 °F - 46.4 °F 52% 29.33 in 9.0 mi SSW 5.8 mph - N/A   Clear
5:35 PM 62.6 °F - 46.4 °F 55% 29.33 in 9.0 mi SW 4.6 mph - N/A   Clear
5:55 PM 62.6 °F - 46.4 °F 55% 29.33 in 9.0 mi South 3.5 mph - N/A   Clear
6:15 PM 59.0 °F - 44.6 °F 59% 29.32 in 10.0 mi ESE 4.6 mph - N/A   Clear
6:35 PM 59.0 °F - 44.6 °F 59% 29.31 in 10.0 mi SE 8.1 mph - N/A   Clear
6:55 PM 59.0 °F - 46.4 °F 63% 29.30 in 10.0 mi SSE 6.9 mph - N/A   Clear
7:15 PM 57.2 °F - 46.4 °F 67% 29.30 in 10.0 mi SSE 6.9 mph - N/A   Clear
7:35 PM 55.4 °F - 44.6 °F 67% 29.30 in 10.0 mi SSE 8.1 mph - N/A   Clear
7:55 PM 53.6 °F - 46.4 °F 77% 29.29 in 10.0 mi SSE 10.4 mph - N/A   Clear
8:35 PM 55.4 °F - 46.4 °F 72% 29.28 in 10.0 mi SSE 10.4 mph - N/A   Clear
8:55 PM 53.6 °F - 46.4 °F 77% 29.28 in 10.0 mi SSE 9.2 mph - N/A   Clear
9:15 PM 53.6 °F - 46.4 °F 77% 29.27 in 10.0 mi SSE 8.1 mph - N/A   Clear
9:55 PM 50.0 °F - 46.4 °F 87% 29.26 in 10.0 mi SSE 6.9 mph - N/A   Clear
10:15 PM 50.0 °F - 44.6 °F 82% 29.26 in 10.0 mi SSE 6.9 mph - N/A   Clear
10:35 PM 50.0 °F - 46.4 °F 87% 29.25 in 10.0 mi SSE 6.9 mph - N/A   Clear
10:55 PM 50.0 °F - 46.4 °F 87% 29.25 in 10.0 mi SSE 8.1 mph - N/A   Clear
11:15 PM 53.6 °F - 46.4 °F 77% 29.25 in 10.0 mi SSE 9.2 mph - N/A   Clear
11:35 PM 53.6 °F - 46.4 °F 77% 29.24 in 10.0 mi SSE 8.1 mph - N/A   Scattered Clouds
11:55 PM 53.6 °F - 46.4 °F 77% 29.24 in 10.0 mi South 10.4 mph - N/A   Mostly Cloudy